ECSPL EDXH-EDXW

Flight info

Callsign ECSPL
Flight time 0h 17m
Altitude 5500
Route VFR LOCAL
Aircraft PC12/L-VD/A

Departure

Time 2026-04-22 14:40
Airport Helgoland-Düne Airport (EDXH)

Arrival

Time 2026-04-22 14:57
Airport Westerland Sylt Airport (EDXW)
Time Latitude Longitude Altitude Speed Heading
2026-04-22 14:22 54.18768 7.91615 6 ft 0 kts 144°
2026-04-22 14:35 54.18751 7.91609 6 ft 0 kts 216°
2026-04-22 14:35 54.18722 7.91585 6 ft 9 kts 196°
2026-04-22 14:36 54.18665 7.91596 5 ft 14 kts 180°
2026-04-22 14:36 54.18565 7.91518 6 ft 17 kts 204°
2026-04-22 14:36 54.18478 7.91495 9 ft 15 kts 146°
2026-04-22 14:36 54.18374 7.91620 8 ft 14 kts 149°
2026-04-22 14:37 54.18327 7.91663 10 ft 6 kts 156°
2026-04-22 14:37 54.18312 7.91675 10 ft 2 kts 116°
2026-04-22 14:37 54.18311 7.91678 10 ft 0 kts 88°
2026-04-22 14:37 54.18312 7.91684 10 ft 2 kts 69°
2026-04-22 14:38 54.18329 7.91676 10 ft 0 kts 316°
2026-04-22 14:39 54.18339 7.91662 10 ft 15 kts 323°
2026-04-22 14:39 54.18609 7.91326 12 ft 74 kts 324°
2026-04-22 14:39 54.19070 7.90793 323 ft 84 kts 332°
2026-04-22 14:40 54.20096 7.90874 958 ft 107 kts 32°
2026-04-22 14:40 54.20815 7.92418 1342 ft 148 kts 44°
2026-04-22 14:40 54.21749 7.93451 1563 ft 174 kts 17°
2026-04-22 14:40 54.22965 7.94137 1833 ft 194 kts 15°
2026-04-22 14:41 54.24292 7.94897 2126 ft 208 kts 16°
2026-04-22 14:41 54.25692 7.95713 2395 ft 216 kts 16°
2026-04-22 14:41 54.27134 7.96550 2673 ft 222 kts 16°
2026-04-22 14:41 54.28613 7.97405 2944 ft 225 kts 17°
2026-04-22 14:42 54.30108 7.98271 3211 ft 228 kts 17°
2026-04-22 14:42 54.31614 7.99148 3476 ft 229 kts 17°
2026-04-22 14:42 54.33121 8.00022 3726 ft 230 kts 17°
2026-04-22 14:42 54.34639 8.00902 3979 ft 230 kts 17°
2026-04-22 14:43 54.36158 8.01786 4237 ft 231 kts 17°
2026-04-22 14:43 54.37451 8.02538 4454 ft 231 kts 17°
2026-04-22 14:43 54.38462 8.03126 4625 ft 232 kts 18°
2026-04-22 14:43 54.39962 8.04001 4877 ft 223 kts 17°
2026-04-22 14:44 54.41901 8.05131 5018 ft 224 kts 17°
2026-04-22 14:44 54.42903 8.05715 5012 ft 227 kts 17°
2026-04-22 14:44 54.44400 8.06589 5016 ft 226 kts 18°
2026-04-22 14:44 54.45888 8.07460 5017 ft 226 kts 18°
2026-04-22 14:45 54.47377 8.08331 5012 ft 224 kts 18°
2026-04-22 14:45 54.48841 8.09187 5014 ft 221 kts 17°
2026-04-22 14:45 54.50293 8.10037 5012 ft 219 kts 18°
2026-04-22 14:45 54.51728 8.10877 5013 ft 217 kts 17°
2026-04-22 14:46 54.53153 8.11714 5012 ft 216 kts 18°
2026-04-22 14:46 54.54570 8.12546 5013 ft 215 kts 18°
2026-04-22 14:46 54.55991 8.13380 5013 ft 215 kts 17°
2026-04-22 14:46 54.57400 8.14230 5014 ft 214 kts 20°
2026-04-22 14:47 54.59127 8.15884 5007 ft 215 kts 29°
2026-04-22 14:47 54.59975 8.16788 4868 ft 221 kts 29°
2026-04-22 14:47 54.61316 8.18214 4538 ft 229 kts 30°
2026-04-22 14:47 54.62692 8.19682 4216 ft 234 kts 29°
2026-04-22 14:48 54.64079 8.21166 3895 ft 236 kts 29°
2026-04-22 14:48 54.65475 8.22672 3562 ft 236 kts 30°
2026-04-22 14:48 54.66869 8.24182 3228 ft 236 kts 30°
2026-04-22 14:48 54.68214 8.25818 2892 ft 237 kts 33°
2026-04-22 14:49 54.69542 8.27522 2532 ft 236 kts 33°
2026-04-22 14:49 54.70729 8.29060 2157 ft 195 kts 33°
2026-04-22 14:49 54.71735 8.30395 1990 ft 168 kts 34°
2026-04-22 14:49 54.72596 8.31578 1999 ft 150 kts 35°
2026-04-22 14:50 54.73389 8.32678 1997 ft 142 kts 33°
2026-04-22 14:50 54.74142 8.33742 1999 ft 138 kts 33°
2026-04-22 14:50 54.74906 8.34830 1759 ft 149 kts 33°
2026-04-22 14:50 54.75731 8.35994 1481 ft 156 kts 33°
2026-04-22 14:51 54.76580 8.37197 1206 ft 159 kts 33°
2026-04-22 14:51 54.77413 8.38392 1024 ft 152 kts 33°
2026-04-22 14:51 54.78187 8.39491 1204 ft 133 kts 27°
2026-04-22 14:51 54.78914 8.40264 1319 ft 113 kts 24°
2026-04-22 14:52 54.79604 8.40775 1365 ft 105 kts
2026-04-22 14:52 54.80357 8.40964 1410 ft 113 kts 359°
2026-04-22 14:52 54.81171 8.41084 1433 ft 119 kts 357°
2026-04-22 14:52 54.82004 8.41144 1481 ft 119 kts 356°
2026-04-22 14:53 54.82828 8.41142 1496 ft 120 kts 354°
2026-04-22 14:53 54.83668 8.41031 1400 ft 121 kts 350°
2026-04-22 14:53 54.84417 8.40859 1448 ft 101 kts 348°
2026-04-22 14:53 54.85084 8.40688 1432 ft 94 kts 347°
2026-04-22 14:54 54.85702 8.40476 1401 ft 89 kts 339°
2026-04-22 14:54 54.86289 8.40157 1320 ft 86 kts 332°
2026-04-22 14:54 54.86804 8.39672 1213 ft 81 kts 323°
2026-04-22 14:54 54.87246 8.39085 1141 ft 81 kts 319°
2026-04-22 14:55 54.87687 8.38498 967 ft 78 kts 323°
2026-04-22 14:55 54.88113 8.37962 821 ft 72 kts 324°
2026-04-22 14:55 54.88530 8.37466 645 ft 71 kts 324°
2026-04-22 14:55 54.88923 8.36983 483 ft 67 kts 323°
2026-04-22 14:56 54.89314 8.36521 413 ft 69 kts 322°
2026-04-22 14:56 54.89711 8.36035 304 ft 70 kts 323°
2026-04-22 14:56 54.90104 8.35542 166 ft 69 kts 324°
2026-04-22 14:56 54.90494 8.35074 56 ft 67 kts 323°
2026-04-22 14:57 54.90834 8.34651 36 ft 51 kts 324°
2026-04-22 14:57 54.91083 8.34344 40 ft 39 kts 324°
2026-04-22 14:57 54.91277 8.34109 39 ft 26 kts 322°
2026-04-22 14:57 54.91439 8.33906 38 ft 30 kts 324°
2026-04-22 14:58 54.91610 8.33691 39 ft 31 kts 325°
2026-04-22 14:58 54.91793 8.33466 39 ft 31 kts 326°
2026-04-22 14:58 54.91932 8.33375 38 ft 18 kts 33°
2026-04-22 14:58 54.91963 8.33602 38 ft 18 kts 88°
2026-04-22 14:59 54.92010 8.33758 38 ft 13 kts 38°
2026-04-22 14:59 54.92046 8.33891 39 ft 14 kts
2026-04-22 14:59 54.92079 8.33895 39 ft 0 kts 17°